When you browse on this site, cookies collect data to enhance your experience and personalize the content and advertising you see.
Visit our Privacy Policy to learn more. By continuing to use the site, you agree to this use of cookies and data.
  • In Hungary
  • List of Countries
  • For 7 days
  • Water Temperature
  • Satellite Maps
  • Weather Map
  • News
  • Weather Widgets
  • user-avatar
    Login

    Hourly Weather Imphal

    Today, 22 July, Monday

    Time Temperature Precipitation Wind Pressure Humidity
    00:00 +22°C° 0 mm 0 mps 688 mmHg 96%
    01:00 +22°C° 0 mm 0 mps 688 mmHg 96%
    02:00 +22°C° 0 mm 0 mps 687 mmHg 96%
    03:00 +22°C° 0 mm 0 mps 687 mmHg 96%
    04:00 +22°C° 0 mm 0 mps 687 mmHg 96%
    05:00 +22°C° 0 mm 0 mps 687 mmHg 95%
    06:00 +23°C° 0 mm 0 mps 688 mmHg 96%
    07:00 +24°C° 0.6 mm 0 mps 688 mmHg 92%
    08:00 +25°C° 0.6 mm 0 mps 689 mmHg 88%
    09:00 +28°C° 0.6 mm 1 mps 689 mmHg 84%
    10:00 +29°C° 1.5 mm 1 mps 689 mmHg 84%
    11:00 +29°C° 1.5 mm 1 mps 688 mmHg 84%
    12:00 +30°C° 0 mm 1 mps 689 mmHg 83%
    13:00 +29°C° 1.6 mm 1 mps 688 mmHg 84%
    14:00 +29°C° 1.6 mm 1 mps 687 mmHg 85%
    15:00 +29°C° 1.6 mm 1 mps 687 mmHg 86%
    16:00 +28°C° 0.9 mm 1 mps 687 mmHg 89%
    17:00 +27°C° 0.9 mm 1 mps 687 mmHg 92%
    18:00 +26°C° 0.9 mm 1 mps 687 mmHg 95%
    19:00 +25°C° 0.3 mm 1 mps 687 mmHg 95%
    20:00 +25°C° 0.3 mm 1 mps 688 mmHg 96%
    21:00 +24°C° 0.3 mm 1 mps 688 mmHg 97%
    22:00 +24°C° 0.2 mm 1 mps 688 mmHg 97%
    23:00 +24°C° 0.2 mm 1 mps 688 mmHg 97%

    Tomorrow, 23 July, Tuesday

    Time Temperature Precipitation Wind Pressure Humidity
    00:00 +24°C° 0.2 mm 1 mps 688 mmHg 98%
    01:00 +24°C° 0.1 mm 1 mps 687 mmHg 97%
    02:00 +24°C° 0.1 mm 1 mps 687 mmHg 97%
    03:00 +24°C° 0.1 mm 1 mps 687 mmHg 97%
    04:00 +24°C° 0 mm 1 mps 687 mmHg 97%
    05:00 +24°C° 0 mm 1 mps 687 mmHg 97%
    06:00 +22°C° 0 mm 0 mps 687 mmHg 96%
    07:00 +24°C° 0 mm 1 mps 688 mmHg 93%
    08:00 +25°C° 0 mm 1 mps 688 mmHg 89%
    09:00 +26°C° 0 mm 1 mps 688 mmHg 85%
    10:00 +27°C° 0.2 mm 1 mps 688 mmHg 80%
    11:00 +28°C° 0.2 mm 2 mps 688 mmHg 76%
    12:00 +30°C° 0.2 mm 2 mps 688 mmHg 71%
    13:00 +29°C° 0.7 mm 2 mps 687 mmHg 77%
    14:00 +28°C° 0.7 mm 1 mps 687 mmHg 82%
    15:00 +27°C° 0.7 mm 1 mps 686 mmHg 88%
    16:00 +26°C° 0.3 mm 1 mps 686 mmHg 90%
    17:00 +26°C° 0.3 mm 1 mps 686 mmHg 92%
    18:00 +23°C° 0.3 mm 0 mps 686 mmHg 94%
    19:00 +22°C° 0.1 mm 0 mps 687 mmHg 94%
    20:00 +22°C° 0.1 mm 0 mps 687 mmHg 94%
    21:00 +22°C° 0.1 mm 0 mps 688 mmHg 95%
    22:00 +22°C° 0.1 mm 0 mps 687 mmHg 95%
    23:00 +21°C° 0.1 mm 0 mps 687 mmHg 96%

    Day after tomorrow, 24 July, Wednesday

    Time Temperature Precipitation Wind Pressure Humidity
    00:00 +21°C° 0.1 mm 0 mps 687 mmHg 96%
    01:00 +21°C° 0.1 mm 0 mps 687 mmHg 97%
    02:00 +21°C° 0.1 mm 0 mps 687 mmHg 97%
    03:00 +21°C° 0.1 mm 0 mps 686 mmHg 97%
    04:00 +21°C° 0.1 mm 0 mps 686 mmHg 97%
    05:00 +21°C° 0.1 mm 0 mps 686 mmHg 97%
    06:00 +22°C° 0.1 mm 0 mps 687 mmHg 97%
    07:00 +22°C° 0.5 mm 0 mps 687 mmHg 97%
    08:00 +22°C° 0.5 mm 0 mps 687 mmHg 97%
    09:00 +22°C° 0.5 mm 0 mps 688 mmHg 97%
    10:00 +22°C° 0.4 mm 0 mps 688 mmHg 96%
    11:00 +23°C° 0.4 mm 0 mps 688 mmHg 95%
    12:00 +23°C° 0.4 mm 0 mps 687 mmHg 94%
    13:00 +23°C° 0.6 mm 0 mps 687 mmHg 94%
    14:00 +24°C° 0.6 mm 0 mps 687 mmHg 93%
    15:00 +24°C° 0.6 mm 0 mps 687 mmHg 93%
    16:00 +23°C° 0.7 mm 0 mps 687 mmHg 94%
    17:00 +23°C° 0.7 mm 0 mps 687 mmHg 96%
    18:00 +22°C° 0.7 mm 0 mps 687 mmHg 97%
    19:00 +22°C° 0.2 mm 0 mps 687 mmHg 97%
    20:00 +22°C° 0.2 mm 0 mps 688 mmHg 98%
    21:00 +22°C° 0.2 mm 0 mps 689 mmHg 98%
    22:00 +22°C° 0.2 mm 0 mps 688 mmHg 98%
    23:00 +22°C° 0.2 mm 0 mps 688 mmHg 98%

    25 July, Thursday

    Time Temperature Precipitation Wind Pressure Humidity
    00:00 +21°C° 0.2 mm 0 mps 688 mmHg 98%
    01:00 +21°C° 0.1 mm 0 mps 688 mmHg 98%
    02:00 +21°C° 0.1 mm 0 mps 688 mmHg 99%
    03:00 +21°C° 0.1 mm 0 mps 687 mmHg 99%
    04:00 +21°C° 0.3 mm 0 mps 687 mmHg 99%
    05:00 +21°C° 0.3 mm 0 mps 688 mmHg 98%
    06:00 +21°C° 0.3 mm 0 mps 688 mmHg 98%
    07:00 +22°C° 0.3 mm 0 mps 688 mmHg 97%
    08:00 +22°C° 0.3 mm 0 mps 689 mmHg 96%
    09:00 +23°C° 0.3 mm 0 mps 689 mmHg 95%
    10:00 +25°C° 0.4 mm 1 mps 689 mmHg 95%
    11:00 +25°C° 0.4 mm 1 mps 688 mmHg 95%
    12:00 +25°C° 0.4 mm 1 mps 688 mmHg 95%
    13:00 +25°C° 0.2 mm 1 mps 688 mmHg 94%
    14:00 +26°C° 0.2 mm 1 mps 687 mmHg 93%
    15:00 +26°C° 0.2 mm 1 mps 687 mmHg 92%
    16:00 +24°C° 0.2 mm 0 mps 687 mmHg 93%
    17:00 +23°C° 0.2 mm 0 mps 687 mmHg 94%
    18:00 +23°C° 0.2 mm 0 mps 687 mmHg 95%
    19:00 +23°C° 0.3 mm 0 mps 688 mmHg 96%
    20:00 +22°C° 0.3 mm 0 mps 688 mmHg 97%
    21:00 +22°C° 0.3 mm 0 mps 689 mmHg 97%
    22:00 +22°C° 0.1 mm 0 mps 689 mmHg 98%
    23:00 +22°C° 0.1 mm 0 mps 689 mmHg 98%

    26 July, Friday

    Time Temperature Precipitation Wind Pressure Humidity
    00:00 +21°C° 0.1 mm 0 mps 688 mmHg 98%
    01:00 +21°C° 0.4 mm 0 mps 688 mmHg 98%
    02:00 +21°C° 0.4 mm 0 mps 688 mmHg 98%
    03:00 +21°C° 0.4 mm 0 mps 688 mmHg 98%
    04:00 +21°C° 0.8 mm 0 mps 688 mmHg 98%
    05:00 +21°C° 0.8 mm 0 mps 688 mmHg 98%
    06:00 +21°C° 0.8 mm 0 mps 688 mmHg 99%
    07:00 +22°C° 1.1 mm 0 mps 689 mmHg 98%
    08:00 +22°C° 1.1 mm 0 mps 689 mmHg 98%
    09:00 +22°C° 1.1 mm 0 mps 689 mmHg 97%
    10:00 +23°C° 0.3 mm 0 mps 689 mmHg 94%
    11:00 +26°C° 0.3 mm 1 mps 689 mmHg 91%
    12:00 +27°C° 0.3 mm 1 mps 689 mmHg 87%
    13:00 +27°C° 0.7 mm 1 mps 688 mmHg 86%
    14:00 +28°C° 0.7 mm 1 mps 687 mmHg 84%
    15:00 +28°C° 0.7 mm 1 mps 687 mmHg 83%
    16:00 +28°C° 0.6 mm 1 mps 687 mmHg 86%
    17:00 +27°C° 0.6 mm 1 mps 687 mmHg 89%
    18:00 +26°C° 0.6 mm 1 mps 687 mmHg 93%
    19:00 +25°C° 0.3 mm 1 mps 687 mmHg 94%
    20:00 +24°C° 0.3 mm 1 mps 688 mmHg 96%
    21:00 +21°C° 0.3 mm 0 mps 688 mmHg 97%
    22:00 +21°C° 0.1 mm 0 mps 688 mmHg 98%
    23:00 +21°C° 0.1 mm 0 mps 688 mmHg 98%

    27 July, Saturday

    Time Temperature Precipitation Wind Pressure Humidity
    00:00 +21°C° 0.1 mm 0 mps 688 mmHg 98%
    01:00 +21°C° 0.1 mm 0 mps 688 mmHg 98%
    02:00 +21°C° 0.1 mm 0 mps 688 mmHg 98%
    03:00 +21°C° 0.1 mm 0 mps 688 mmHg 98%
    04:00 +21°C° 0.2 mm 0 mps 688 mmHg 98%
    05:00 +21°C° 0.2 mm 0 mps 688 mmHg 97%
    06:00 +22°C° 0.2 mm 0 mps 688 mmHg 97%
    07:00 +23°C° 0.3 mm 0 mps 688 mmHg 95%
    08:00 +26°C° 0.3 mm 1 mps 689 mmHg 92%
    09:00 +26°C° 0.3 mm 1 mps 689 mmHg 90%
    10:00 +27°C° 1.4 mm 1 mps 689 mmHg 88%
    11:00 +28°C° 1.4 mm 1 mps 688 mmHg 86%
    12:00 +29°C° 1.4 mm 1 mps 688 mmHg 84%
    13:00 +29°C° 1.7 mm 1 mps 687 mmHg 83%
    14:00 +29°C° 1.7 mm 1 mps 687 mmHg 81%
    15:00 +29°C° 1.7 mm 1 mps 686 mmHg 80%
    16:00 +28°C° 1.7 mm 1 mps 686 mmHg 85%
    17:00 +27°C° 1.7 mm 1 mps 686 mmHg 89%
    18:00 +24°C° 1.7 mm 0 mps 686 mmHg 94%
    19:00 +24°C° 0.4 mm 0 mps 687 mmHg 95%
    20:00 +23°C° 0.4 mm 0 mps 687 mmHg 96%
    21:00 +22°C° 0.4 mm 0 mps 688 mmHg 97%
    22:00 +22°C° 0.2 mm 0 mps 688 mmHg 97%
    23:00 +22°C° 0.2 mm 0 mps 688 mmHg 97%
    Show more